Leeds/Bradford, United Kingdom

10:37 PM GMT on January 16, 2017 (GMT +0000)
Leeds And Bradford

Weather History for EGNM - October, 2013

Change the Weather History Date:

Tuesday, October 1, 2013

  Actual Average Record
Temperature  
Mean Temperature 52 °F -  
Max Temperature 57 °F 52 °F 80 °F (2011)
Min Temperature 47 °F 42 °F 42 °F (1996)
Degree Days  
Heating Degree Days 13    
Growing Degree Days 2 (Base 50)    
Moisture  
Dew Point 49 °F    
Average Humidity 89    
Maximum Humidity 100    
Minimum Humidity 72    
Precipitation  
Precipitation 0.00 in - - ()
Sea Level Pressure  
Sea Level Pressure 29.84 in    
Wind  
Wind Speed 11 mph ()    
Max Wind Speed 24 mph    
Max Gust Speed -    
Visibility 5.9 miles    
Events      
Averages and records for this station are not official NWS values.
T = Trace of Precipitation, MM = Missing Value Source: Averaged Metar Reports

Daily Weather History Graph

Daily Weather History Graph

Search for Another Location

Airport or City:

Trip Planner

Search our weather history database for the weather conditions in past years. The results will help you decide how hot, cold, wet, or windy it might be!

Date:

Astronomy

Oct. 01, 2013 Rise Set
Actual Time 7:08 AM BST 6:42 PM BST
Civil Twilight 6:33 AM BST 7:17 PM BST
Nautical Twilight 5:52 AM BST 7:58 PM BST
Astronomical Twilight 5:09 AM BST 8:40 PM BST
Moon 3:01 AM BST (10/1) 5:00 PM BST (10/1)
Length of Visible Light 12h 44m
Length of Day
11h 34m
Waning Crescent, 13% of the Moon is Illuminated
Oct 1
Waning Crescent
Oct 5
New
Oct 12
First Quarter
Oct 19
Full
Oct 27
Last Quarter

Hourly Weather History & Observations

Time (BST) Temp. Dew Point Humidity Pressure Visibility Wind Dir Wind Speed Gust Speed Precip Events Conditions
12:20 AM 50.0 °F 46.4 °F 87% 29.86 in 6.2 mi East 9.2 mph - N/A   Mostly Cloudy
12:50 AM 48 °F 46 °F 90%  in - East 15.0 mph - -  
12:50 AM 50.0 °F 46.4 °F 87% 29.86 in 6.2 mi East 8.1 mph - N/A   Mostly Cloudy
1:20 AM 50.0 °F 46.4 °F 87% 29.86 in 6.2 mi East 8.1 mph - N/A   Mostly Cloudy
1:50 AM 50.0 °F 46.4 °F 87% 29.86 in 6.2 mi East 9.2 mph - N/A   Mostly Cloudy
2:20 AM 50.0 °F 46.4 °F 87% 29.86 in 6.2 mi East 10.4 mph - N/A   Mostly Cloudy
2:50 AM 50.0 °F 46.4 °F 87% 29.83 in 6.2 mi East 9.2 mph - N/A   Mostly Cloudy
3:20 AM 50.0 °F 46.4 °F 87% 29.83 in 6.2 mi East 10.4 mph - N/A   Mostly Cloudy
3:50 AM 50 °F 48 °F 89%  in - ESE 16.1 mph - -  
3:50 AM 50.0 °F 48.2 °F 94% 29.83 in 6.2 mi East 10.4 mph - N/A   Mostly Cloudy
4:20 AM 51.8 °F 48.2 °F 88% 29.83 in 6.2 mi East 11.5 mph - N/A   Mostly Cloudy
4:50 AM 51.8 °F 50.0 °F 94% 29.83 in 6.2 mi East 11.5 mph - N/A   Mostly Cloudy
5:20 AM 51.8 °F 50.0 °F 94% 29.83 in 6.2 mi East 10.4 mph - N/A   Mostly Cloudy
5:50 AM 51.8 °F 50.0 °F 94% 29.83 in 6.2 mi East 11.5 mph - N/A   Mostly Cloudy
6:20 AM 50.0 °F 50.0 °F 100% 29.83 in 6.2 mi East 11.5 mph - N/A   Scattered Clouds
6:50 AM 49 °F 48 °F 95%  in - East 18.4 mph - -  
6:50 AM 50.0 °F 48.2 °F 94% 29.83 in 3.7 mi East 11.5 mph - N/A   Scattered Clouds
7:20 AM 48.2 °F 48.2 °F 100% 29.83 in 3.7 mi East 10.4 mph - N/A   Partly Cloudy
7:50 AM 50.0 °F 48.2 °F 94% 29.86 in 5.0 mi East 9.2 mph - N/A   Partly Cloudy
8:20 AM 50.0 °F 50.0 °F 100% 29.86 in 5.0 mi East 9.2 mph - N/A   Scattered Clouds
8:50 AM 50.0 °F 50.0 °F 100% 29.86 in 5.0 mi East 9.2 mph - N/A   Mostly Cloudy
9:20 AM 51.8 °F 50.0 °F 94% 29.86 in 5.0 mi East 12.7 mph - N/A   Mostly Cloudy
9:50 AM 51 °F 49 °F 92%  in - ESE 18.4 mph - -  
9:50 AM 51.8 °F 50.0 °F 94% 29.86 in 5.0 mi East 12.7 mph - N/A   Mostly Cloudy
10:20 AM 53.6 °F 50.0 °F 88% 29.86 in 5.0 mi ESE 12.7 mph - N/A   Mostly Cloudy
10:50 AM 53.6 °F 50.0 °F 88% 29.86 in 6.2 mi ESE 10.4 mph - N/A   Mostly Cloudy
11:20 AM 53.6 °F 50.0 °F 88% 29.86 in 6.2 mi ESE 11.5 mph - N/A   Mostly Cloudy
11:50 AM 55.4 °F 50.0 °F 82% 29.86 in 6.2 mi ESE 13.8 mph - N/A   Mostly Cloudy
12:20 PM 55.4 °F 50.0 °F 82% 29.83 in 6.2 mi East 16.1 mph - N/A   Mostly Cloudy
12:50 PM 54 °F 49 °F 79%  in - ESE 18.4 mph - -  
12:50 PM 55.4 °F 50.0 °F 82% 29.83 in 6.2 mi ESE 16.1 mph - N/A   Mostly Cloudy
1:20 PM 55.4 °F 50.0 °F 82% 29.83 in 6.2 mi ESE 13.8 mph - N/A   Mostly Cloudy
1:50 PM 57.2 °F 50.0 °F 77% 29.83 in 6.2 mi East 12.7 mph - N/A   Mostly Cloudy
2:20 PM 57.2 °F 51.8 °F 82% 29.83 in 6.2 mi East 15.0 mph - N/A   Mostly Cloudy
2:50 PM 55.4 °F 51.8 °F 88% 29.83 in 6.2 mi East 16.1 mph - N/A   Mostly Cloudy
3:20 PM 55.4 °F 51.8 °F 88% 29.83 in 6.2 mi East 17.3 mph - N/A   Mostly Cloudy
3:50 PM 57 °F 51 °F 72%  in - East 19.6 mph - -  
3:50 PM 57.2 °F 51.8 °F 82% 29.83 in 6.2 mi East 15.0 mph - N/A   Mostly Cloudy
4:20 PM 55.4 °F 51.8 °F 88% 29.83 in 6.2 mi East 13.8 mph - N/A   Mostly Cloudy
4:50 PM 55.4 °F 50.0 °F 82% 29.83 in 6.2 mi East 13.8 mph - N/A   Mostly Cloudy
5:20 PM 55.4 °F 50.0 °F 82% 29.83 in 6.2 mi East 11.5 mph - N/A   Mostly Cloudy
5:50 PM 55.4 °F 50.0 °F 82% 29.83 in 6.2 mi East 11.5 mph - N/A   Mostly Cloudy
6:20 PM 53.6 °F 50.0 °F 88% 29.83 in 6.2 mi East 15.0 mph - N/A   Mostly Cloudy
6:50 PM 55 °F 49 °F 74%  in - ESE 23.0 mph - -  
6:50 PM 53.6 °F 50.0 °F 88% 29.83 in 6.2 mi East 13.8 mph - N/A   Scattered Clouds
7:20 PM 53.6 °F 50.0 °F 88% 29.83 in 6.2 mi East 12.7 mph - N/A   Partly Cloudy
7:50 PM 51.8 °F 50.0 °F 94% 29.86 in - East 12.7 mph - N/A   Clear
8:20 PM 51.8 °F 50.0 °F 94% 29.86 in - East 12.7 mph - N/A   Clear
8:50 PM 51.8 °F 50.0 °F 94% 29.86 in - ESE 12.7 mph - N/A   Clear
9:20 PM 51.8 °F 48.2 °F 88% 29.86 in - ESE 12.7 mph - N/A   Clear
9:50 PM 51 °F 48 °F 87%  in - ESE 24.2 mph - -  
9:50 PM 51.8 °F 48.2 °F 88% 29.86 in - East 11.5 mph - N/A   Clear
10:20 PM 51.8 °F 48.2 °F 88% 29.86 in - East 15.0 mph - N/A   Clear
10:50 PM 51.8 °F 50.0 °F 94% 29.86 in - ESE 15.0 mph - N/A   Clear
11:20 PM 51.8 °F 50.0 °F 94% 29.86 in 6.2 mi ESE 15.0 mph - N/A   Partly Cloudy
11:50 PM 51.8 °F 50.0 °F 94% 29.86 in 6.2 mi ESE 15.0 mph - N/A   Scattered Clouds